Jefferson, NC

9:46 AM EDT on July 28, 2017 (GMT -0400)
Ashe County

Weather History for KGEV - February, 2014

Change the Weather History Date:

Sunday, February 23, 2014

  Actual Average Record
Temperature  
Mean Temperature 48 °F -  
Max Temperature 61 °F 48 °F 67 °F (1980)
Min Temperature 37 °F 27 °F 10 °F (1978)
Degree Days  
Heating Degree Days 16    
Moisture  
Dew Point 17 °F    
Average Humidity 29    
Maximum Humidity 51    
Minimum Humidity 15    
Precipitation  
Precipitation 0.00 in - - ()
Sea Level Pressure  
Sea Level Pressure 29.99 in    
Wind  
Wind Speed 5 mph (West)    
Max Wind Speed 16 mph    
Max Gust Speed 28 mph    
Visibility 10 miles    
Events      
Averages and records for this station are not official NWS values.
T = Trace of Precipitation, MM = Missing Value Source: NWS Daily Summary

Daily Weather History Graph

Daily Weather History Graph

Search for Another Location

Airport or City:

Trip Planner

Search our weather history database for the weather conditions in past years. The results will help you decide how hot, cold, wet, or windy it might be!

Date:

Astronomy

Feb. 23, 2014 Rise Set
Actual Time 7:03 AM EST 6:14 PM EST
Civil Twilight 6:37 AM EST 6:40 PM EST
Nautical Twilight 6:07 AM EST 7:10 PM EST
Astronomical Twilight 5:38 AM EST 7:40 PM EST
Moon 1:55 AM EST (2/23) 12:20 PM EST (2/23)
Length of Visible Light 12h 02m
Length of Day
11h 10m
Last Quarter, 39% of the Moon is Illuminated
Feb 23
Last Quarter
Mar 1
New
Mar 8
First Quarter
Mar 16
Full
Mar 23
Last Quarter

Hourly Weather History & Observations

Time (EST) Temp. Windchill Dew Point Humidity Pressure Visibility Wind Dir Wind Speed Gust Speed Precip Events Conditions
12:15 AM 41.9 °F 38.2 °F 18.0 °F 38% 30.06 in 10.0 mi South 5.8 mph - N/A   Clear
12:35 AM 41.5 °F - 18.0 °F 39% 30.06 in 10.0 mi Calm Calm - N/A   Clear
12:55 AM 41.2 °F - 17.6 °F 39% 30.06 in 10.0 mi Calm Calm - N/A   Clear
1:15 AM 40.8 °F 37.8 °F 17.4 °F 39% 30.05 in 10.0 mi SSE 4.6 mph - N/A   Clear
1:35 AM 41.7 °F - 16.2 °F 36% 30.04 in 10.0 mi Calm Calm - N/A   Clear
1:55 AM 41.2 °F - 16.0 °F 36% 30.04 in 10.0 mi Calm Calm - N/A   Clear
2:15 AM 41.5 °F - 15.3 °F 35% 30.04 in 10.0 mi Calm Calm - N/A   Clear
2:35 AM 41.9 °F 39.0 °F 14.9 °F 34% 30.04 in 10.0 mi South 4.6 mph - N/A   Clear
2:55 AM 42.3 °F - 15.3 °F 34% 30.04 in 10.0 mi Calm Calm - N/A   Clear
3:15 AM 43.0 °F - 14.7 °F 32% 30.04 in 10.0 mi Calm Calm - N/A   Clear
3:35 AM 43.7 °F - 14.9 °F 31% 30.03 in 10.0 mi Calm Calm - N/A   Clear
3:55 AM 43.9 °F - 14.5 °F 31% 30.04 in 10.0 mi Calm Calm - N/A   Clear
4:15 AM 44.6 °F - 13.1 °F 28% 30.03 in 10.0 mi Calm Calm - N/A   Clear
4:35 AM 43.9 °F - 13.1 °F 29% 30.03 in 10.0 mi Calm Calm - N/A   Clear
4:55 AM 41.9 °F - 14.4 °F 33% 30.04 in 10.0 mi Calm Calm - N/A   Clear
5:15 AM 42.4 °F - 14.5 °F 32% 30.04 in 10.0 mi Calm Calm - N/A   Clear
5:35 AM 42.1 °F - 14.0 °F 32% 30.03 in 10.0 mi Calm Calm - N/A   Clear
5:55 AM 39.7 °F - 16.3 °F 39% 30.04 in 10.0 mi Calm Calm - N/A   Clear
6:15 AM 39.2 °F - 15.4 °F 38% 30.04 in 10.0 mi Calm Calm - N/A   Clear
6:35 AM 39.7 °F - 14.2 °F 35% 30.04 in 10.0 mi Calm Calm - N/A   Clear
6:55 AM 37.6 °F - 15.8 °F 41% 30.04 in 10.0 mi Calm Calm - N/A   Clear
7:15 AM 38.7 °F - 15.8 °F 39% 30.04 in 10.0 mi Calm Calm - N/A   Clear
7:35 AM 40.3 °F - 15.1 °F 36% 30.04 in 10.0 mi Calm Calm - N/A   Clear
7:55 AM 39.9 °F - 14.5 °F 36% 30.04 in 10.0 mi Calm Calm - N/A   Clear
8:15 AM 40.6 °F - 15.1 °F 35% 30.04 in 10.0 mi Calm Calm - N/A   Clear
8:35 AM 40.6 °F - 21.4 °F 46% 30.04 in 10.0 mi Calm Calm - N/A   Clear
8:55 AM 40.8 °F - 18.1 °F 40% 30.05 in 10.0 mi Calm Calm - N/A   Clear
9:15 AM 43.2 °F 40.5 °F 15.4 °F 33% 30.05 in 10.0 mi West 4.6 mph - N/A   Clear
9:35 AM 48.9 °F - 14.4 °F 25% 30.04 in 10.0 mi WSW 5.8 mph - N/A   Scattered Clouds
9:55 AM 51.1 °F - 13.6 °F 23% 30.02 in 10.0 mi Calm Calm - N/A   Scattered Clouds
10:15 AM 52.3 °F - 14.2 °F 22% 30.02 in 10.0 mi West 10.4 mph - N/A   Clear
10:35 AM 52.9 °F - 15.6 °F 23% 30.02 in 10.0 mi WNW 8.1 mph - N/A   Clear
10:55 AM 52.7 °F - 16.7 °F 24% 30.01 in 10.0 mi WNW 8.1 mph - N/A   Clear
11:15 AM 53.4 °F - 16.2 °F 23% 30.01 in 10.0 mi West 10.4 mph - N/A   Clear
11:35 AM 54.7 °F - 16.2 °F 22% 30.01 in 10.0 mi WNW 10.4 mph - N/A   Clear
11:55 AM 55.0 °F - 15.3 °F 21% 30.01 in 10.0 mi West 10.4 mph - N/A   Clear
12:20 PM 55.6 °F - 15.8 °F 21% 30.01 in 10.0 mi West 11.5 mph 16.1 mph N/A   Clear
12:35 PM 56.1 °F - 16.0 °F 21% 30.00 in 10.0 mi West 10.4 mph - N/A   Clear
12:55 PM 57.6 °F - 17.6 °F 21% 29.99 in 10.0 mi WSW 11.5 mph 17.3 mph N/A   Clear
1:15 PM 58.5 °F - 17.6 °F 20% 29.98 in 10.0 mi West 11.5 mph 18.4 mph N/A   Clear
1:35 PM 59.0 °F - 18.1 °F 20% 29.97 in 10.0 mi WSW 12.7 mph 18.4 mph N/A   Clear
1:55 PM 59.4 °F - 18.0 °F 20% 29.96 in 10.0 mi West 12.7 mph 19.6 mph N/A   Clear
2:15 PM 60.1 °F - 17.8 °F 19% 29.95 in 10.0 mi WSW 12.7 mph 21.9 mph N/A   Clear
2:35 PM 60.1 °F - 16.3 °F 18% 29.94 in 10.0 mi West 16.1 mph 27.6 mph N/A   Clear
2:55 PM 60.4 °F - 14.2 °F 16% 29.95 in 10.0 mi West 16.1 mph 26.5 mph N/A   Clear
3:15 PM 60.8 °F - 13.1 °F 15% 29.93 in 10.0 mi West 13.8 mph 24.2 mph N/A   Clear
3:35 PM 60.8 °F - 12.7 °F 15% 29.93 in 10.0 mi West 16.1 mph 23.0 mph N/A   Clear
3:55 PM 60.8 °F - 14.2 °F 16% 29.92 in 10.0 mi WNW 11.5 mph 17.3 mph N/A   Clear
4:15 PM 60.8 °F - 16.2 °F 18% 29.91 in 10.0 mi West 13.8 mph 20.7 mph N/A   Clear
4:35 PM 60.8 °F - 16.5 °F 18% 29.91 in 10.0 mi NW 9.2 mph 16.1 mph N/A   Clear
4:55 PM 60.1 °F - 18.0 °F 20% 29.91 in 10.0 mi West 9.2 mph - N/A   Mostly Cloudy
5:15 PM 58.8 °F - 18.3 °F 21% 29.91 in 10.0 mi West 12.7 mph - N/A   Mostly Cloudy
5:35 PM 57.7 °F - 18.7 °F 22% 29.91 in 10.0 mi West 15.0 mph 19.6 mph N/A   Mostly Cloudy
5:55 PM 57.0 °F - 19.4 °F 23% 29.92 in 10.0 mi WNW 11.5 mph 21.9 mph N/A   Mostly Cloudy
6:15 PM 56.5 °F - 19.9 °F 24% 29.92 in 10.0 mi West 10.4 mph - N/A   Overcast
6:35 PM 55.8 °F - 20.3 °F 25% 29.93 in 10.0 mi West 9.2 mph - N/A   Mostly Cloudy
6:55 PM 55.0 °F - 20.5 °F 26% 29.93 in 10.0 mi West 10.4 mph 17.3 mph N/A   Mostly Cloudy
7:15 PM 54.5 °F - 20.8 °F 27% 29.93 in 10.0 mi West 9.2 mph - N/A   Overcast
7:35 PM 54.1 °F - 20.7 °F 27% 29.93 in 10.0 mi WSW 3.5 mph - N/A   Overcast
7:55 PM 53.8 °F - 21.0 °F 28% 29.93 in 10.0 mi WSW 5.8 mph - N/A   Scattered Clouds
8:15 PM 53.6 °F - 21.0 °F 28% 29.93 in 10.0 mi SW 3.5 mph - N/A   Scattered Clouds
8:35 PM 53.4 °F - 20.5 °F 28% 29.93 in 10.0 mi WSW 9.2 mph - N/A   Scattered Clouds
8:55 PM 52.7 °F - 20.8 °F 29% 29.92 in 10.0 mi WSW 5.8 mph - N/A   Mostly Cloudy
9:15 PM 52.2 °F - 21.0 °F 30% 29.92 in 10.0 mi West 6.9 mph - N/A   Scattered Clouds
9:35 PM 52.3 °F - 21.2 °F 30% 29.91 in 10.0 mi West 5.8 mph - N/A   Scattered Clouds
9:55 PM 52.0 °F - 21.6 °F 30% 29.91 in 10.0 mi West 6.9 mph - N/A   Scattered Clouds
10:15 PM 51.8 °F - 21.7 °F 31% 29.91 in 10.0 mi West 6.9 mph - N/A   Clear
10:35 PM 51.4 °F - 21.7 °F 31% 29.92 in 10.0 mi NW 10.4 mph 19.6 mph N/A   Clear
10:55 PM 47.7 °F - 24.3 °F 40% 29.93 in 10.0 mi NW 6.9 mph - N/A   Clear
11:15 PM 45.7 °F 42.7 °F 25.7 °F 46% 29.93 in 10.0 mi NNW 5.8 mph - N/A   Clear
11:35 PM 44.6 °F 40.7 °F 26.1 °F 48% 29.94 in 10.0 mi NW 6.9 mph - N/A   Clear
11:55 PM 43.3 °F 38.6 °F 26.4 °F 51% 29.95 in 10.0 mi NNW 8.1 mph - N/A   Clear